Zurück zum Katalog

CZ-6A DEB

AktivPO
NORAD 60960·DEBRIS·🇨🇳 China

Gestartet Aug 6, 2024 von Taiyuan Satellite Launch Center

Loading…

Nächste Überflüge (nächste 24 Stunden)

TLE

AktuellSource: Space-Track

Epoche: Sep 14, 2026, 07:42 UTC

1 60960U 24140LK  26257.32140030  .00000636  00000-0  28475-3 0  9991
2 60960  89.0699 271.3780 0046007 233.8924 125.8004 14.20880926107244

Verfolge CZ-6A DEB in Echtzeit mit AllMySat

Download on the App Store